Terminal Aerodrome Forecast
Issued by NWS

Home | Current Version | Previous Version | Graphics & Text | Print | Product List | Glossary On
Versions: 1 2 3 4 5 6 7 8 9 10 11 12 13 14 15 16 17 18 19 20 21 22 23 24 25 26 27 28
000
FTUS43 KBIS 301732
TAFMOT
TAF
KMOT 301732Z 3018/0118 10008KT 6SM FU VCTS SCT050CB OVC100
     FM302200 08008KT P6SM -SHRA VCTS BKN050CB OVC080
     FM010400 06005KT P6SM VCSH BKN035 OVC100
     FM010900 04005KT 6SM BR SCT015 BKN025 OVC035=

USA.gov is the U.S. government's official web portal to all federal, state and local government web resources and services.